International Virtual Aviation Organisation

Russian Federation and Kazakhstan MCD

 

Карточка аэропорта UUYY

Внимание!
Информация на этой странице в стадии наполнения.
Если вы не увидели какой-то информации, или заметили неточность - пожалуйста сообщите нам!
Спасибо!
Команда RU-STAFF
Название аэропортаСыктывкар
Название аэропорта (англ.)Syktyvkar
Превышение341 ft. (103.9 m.)
Координаты61°38.502', 50°50.298'
Высота перехода700
Эшелон переходаQFE>760: FL40; 760>QFE>733: FL50; 733 >QFE :FL60;
Коды ответчика3130-3134, 5752-5757, 5770-5777, 6701-6717
Зона ОрВДСыктывкар РПИ (UUYY)
Данные METARUUYY 281000Z 07001MPS 8000 NSC M12/M14 Q1039 R18/420250 NOSIG RMK QFE770/1027
Проноз погоды (TAF)UUYY 280800Z 2809/2909 10003MPS 9999 SCT020 TEMPO 2809/2815 3100 -SN BR FEW007 BKN016 TEMPO 2815/2906 0300 FZFG BKN002
NOTAMshow/hide NOTAM
AWOS   TABLE

Информация о ВПП

ВПП Длина ВПП (м.) Покрытие Курс ВПП Частота ILS
012500Асфальтобетон6108.3
192500Асфальтобетон186111.7

Диспетчерские позиции

Позывной Наименование органа УВД Частота
UUYY_R_APPСивкар-Круг124.600
UUYY_TWRСивкар-Старт124.600



Спутниковое изображение